カタログに戻る

STARLINK-5468

運用中通信VLEO
NORAD 54777·PAYLOAD·🇺🇸 United States

打ち上げ Dec 17, 2022 から Cape Canaveral Space Force Station

Loading…

次のパス (今後24時間)

TLE

最新Source: CelesTrak SupGP

元期: Sep 14, 2026, 21:28 UTC

1 54777C 22175V   26257.89493056  .00047523  00000+0  14043-2 0  2574
2 54777  53.1564 263.7883 0001259  96.6538 128.7163 15.34362596    10

AllMySatでSTARLINK-5468をリアルタイム追跡

Download on the App Store